Overview Statistics Trail Chart Weather Telemetry Raw packets
 

This is the latest recevied weather packets stored in our database for station/object W8KVG. If no packets are shown the sender has not sent any weather packets the latest 10 day(s).

<< 61 62 63 64 65 66 67 >>
Time Temp. Humidity Pressure Rain* Wind** Luminosity Snow
1777464126 12.78° C 99% 1009.5 hPa 0 mm - 18 W/m² -
1777463826 12.78° C 99% 1009.5 hPa 0 mm - 14 W/m² -
1777463521 12.22° C 99% 1009.6 hPa 0 mm - 10 W/m² -
1777463216 12.22° C 99% 1009.5 hPa 0 mm - 11 W/m² -
1777462913 12.78° C 99% 1010 hPa 0 mm - 10 W/m² -
1777462609 12.22° C 99% 1010.3 hPa 0 mm - 10 W/m² -
1777462305 12.22° C 99% 1010.4 hPa 0 mm - 9 W/m² -
1777462001 12.22° C 99% 1010.4 hPa 0 mm - 8 W/m² -
1777461698 12.22° C 99% 1010.5 hPa 0 mm - 6 W/m² -
1777461393 12.22° C 99% 1010.3 hPa 0 mm - 5 W/m² -
1777461089 12.22° C 99% 1010.5 hPa 0 mm - 7 W/m² -
1777460785 12.22° C 99% 1010.8 hPa 0 mm - 7 W/m² -
1777460481 12.78° C 99% 1010.8 hPa 0 mm - 4 W/m² -
1777460176 12.22° C 99% 1010.7 hPa 0 mm - 4 W/m² -
1777459874 12.22° C 99% 1010.4 hPa 0 mm - 2 W/m² -
1777459571 12.78° C 99% 1010.4 hPa 0 mm - 4 W/m² -
1777459268 12.78° C 99% 1010.5 hPa 0 mm - 3 W/m² -
1777458966 12.78° C 99% 1010.3 hPa 0 mm - 2 W/m² -
1777458662 12.78° C 99% 1010.6 hPa 0 mm - 1 W/m² -
1777458359 12.22° C 99% 1010.6 hPa 0 mm - 0 W/m² -
1777458054 12.78° C 99% 1010.4 hPa 0 mm - 0 W/m² -
1777457750 12.78° C 99% 1010.3 hPa 0 mm - 0 W/m² -
1777457445 12.78° C 99% 1010.3 hPa 0 mm - 0 W/m² -
1777457140 12.78° C 99% 1010.1 hPa 0 mm - 0 W/m² -
1777456837 12.78° C 99% 1010 hPa 0 mm - 0 W/m² -

* Rain latest hour (hover to see other rain measurements)
** Current wind speed in m/s (hover to see current wind gust speed)